Weather History for KIRK - July, 2012

Change the Weather History Date:

Thursday, July 26, 2012

  Actual Average Record
Temperature  
Mean Temperature 80 °F 76 °F  
Max Temperature 94 °F 86 °F 107 °F (1936)
Min Temperature 66 °F 65 °F 48 °F (1962)
Degree Days  
Heating Degree Days 0 0  
Month to date heating degree days 0 0  
Since 1 June heating degree days 10 16  
Since 1 July heating degree days 0 0  
Cooling Degree Days 15 11  
Month to date cooling degree days 464 261  
Year to date cooling degree days 876 515  
Since 1 June cooling degree days 732 453  
Growing Degree Days 30 (Base 50)    
Moisture  
Dew Point 68 °F    
Average Humidity 69    
Maximum Humidity 100    
Minimum Humidity 38    
Precipitation  
Precipitation 0.41 in 0.16 in 1.88 in (1981)
Month to date precipitation 0.51 3.86  
Year to date precipitation 14.86 22.79  
Sea Level Pressure  
Sea Level Pressure 29.81 in    
Wind  
Wind Speed 7 mph (WSW)    
Max Wind Speed 23 mph    
Max Gust Speed 30 mph    
Visibility 9 miles    
Events Rain , Thunderstorm    
T = Trace of Precipitation, MM = Missing Value Source: NWS Daily Summary

Daily Weather History Graph

Daily Weather History Graph

Search for Another Location

Airport or City:

Trip Planner

Search our weather history database for the weather conditions in past years. The results will help you decide how hot, cold, wet, or windy it might be!

Date:

Astronomy

Jul. 26, 2012 Rise Set
Actual Time 6:03 AM CDT 8:29 PM CDT
Civil Twilight 5:32 AM CDT 9:00 PM CDT
Nautical Twilight 4:54 AM CDT 9:38 PM CDT
Astronomical Twilight 4:11 AM CDT 10:20 PM CDT
Moon 2:17 PM CDT (7/26) No Moon Set
Length of Visible Light 15h 27m
Length of Day
14h 26m
First Quarter, 54% of the Moon is Illuminated
Jul 26
First Quarter
Aug 1
Full
Aug 9
Last Quarter
Aug 17
New
Aug 24
First Quarter

Hourly Weather History & Observations

Time (CDT) Temp. Heat Index Dew Point Humidity Pressure Visibility Wind Dir Wind Speed Gust Speed Precip Events Conditions
12:39 AM 73.4 °F - 69.8 °F 88% 29.76 in 10.0 mi NNW 10.4 mph 16.1 mph 0.05 in   Mostly Cloudy
12:55 AM 73.0 °F - 71.1 °F 93% 29.75 in 10.0 mi NW 5.8 mph - 0.05 in   Mostly Cloudy
1:55 AM 73.0 °F - 71.1 °F 93% 29.70 in 10.0 mi Calm Calm - 0.00 in   Scattered Clouds
2:23 AM 73.4 °F - 71.6 °F 94% 29.78 in 10.0 mi WNW 6.9 mph - 0.00 in Rain Light Rain
2:55 AM 72.0 °F - 70.0 °F 93% 29.78 in 3.0 mi West 6.9 mph 16.1 mph 0.05 in Rain , Thunderstorm Light Thunderstorms and Rain
3:11 AM 71.6 °F - 69.8 °F 94% 29.81 in 6.0 mi West 8.1 mph - 0.03 in Rain Light Rain
3:55 AM 70.0 °F - 69.1 °F 97% 29.77 in 7.0 mi South 5.8 mph - 0.09 in Rain Light Rain
4:55 AM 70.0 °F - 69.1 °F 97% 29.77 in 8.0 mi SSW 5.8 mph - 0.05 in Rain Light Rain
5:55 AM 70.0 °F - 68.0 °F 93% 29.75 in 10.0 mi NW 5.8 mph - 0.01 in   Mostly Cloudy
6:18 AM 69.8 °F - 68.0 °F 94% 29.78 in 10.0 mi South 11.5 mph - N/A   Mostly Cloudy
6:26 AM 69.8 °F - 66.2 °F 88% 29.80 in 10.0 mi South 12.7 mph - 0.00 in Rain Light Rain
6:36 AM 69.8 °F - 66.2 °F 88% 29.81 in 10.0 mi SW 6.9 mph - 0.00 in Rain Light Rain
6:55 AM 70.0 °F - 68.0 °F 93% 29.79 in 10.0 mi South 5.8 mph - 0.00 in   Mostly Cloudy
7:55 AM 70.0 °F - 69.1 °F 97% 29.83 in 8.0 mi SW 6.9 mph - 0.00 in   Overcast
8:44 AM 71.6 °F - 69.8 °F 94% 29.84 in 7.0 mi SW 4.6 mph - N/A   Overcast
8:55 AM 71.1 °F - 70.0 °F 96% 29.83 in 7.0 mi WSW 6.9 mph - 0.00 in Rain Light Rain
9:09 AM 71.6 °F - 69.8 °F 94% 29.85 in 9.0 mi WSW 5.8 mph - 0.00 in   Overcast
9:29 AM 73.4 °F - 71.6 °F 94% 29.84 in 10.0 mi WSW 6.9 mph - 0.00 in   Mostly Cloudy
9:55 AM 75.9 °F - 72.0 °F 87% 29.83 in 10.0 mi West 9.2 mph - 0.00 in   Partly Cloudy
10:55 AM 77.0 °F - 72.0 °F 84% 29.83 in 10.0 mi West 8.1 mph - N/A   Partly Cloudy
11:55 AM 78.1 °F - 72.0 °F 81% 29.85 in 10.0 mi West 8.1 mph - N/A   Scattered Clouds
12:55 PM 82.9 °F 88.8 °F 73.0 °F 72% 29.83 in 10.0 mi Variable 6.9 mph - N/A   Clear
1:55 PM 88.0 °F 92.1 °F 69.1 °F 53% 29.84 in 10.0 mi West 11.5 mph 16.1 mph N/A   Clear
2:55 PM 90.0 °F 92.8 °F 66.9 °F 46% 29.83 in 10.0 mi Variable 3.5 mph - N/A   Clear
3:55 PM 93.0 °F 95.0 °F 64.9 °F 39% 29.82 in 10.0 mi NW 12.7 mph - N/A   Scattered Clouds
4:55 PM 91.0 °F 91.5 °F 62.1 °F 38% 29.80 in 10.0 mi North 6.9 mph - N/A   Clear
5:55 PM 90.0 °F 89.1 °F 59.0 °F 35% 29.79 in 10.0 mi North 9.2 mph 28.8 mph N/A Thunderstorm Mostly Cloudy
6:22 PM 91.4 °F 91.4 °F 60.8 °F 36% 29.80 in 10.0 mi NNW 5.8 mph - N/A   Partly Cloudy
6:55 PM 91.0 °F 91.5 °F 62.1 °F 38% 29.79 in 10.0 mi WNW 5.8 mph - N/A   Clear
7:55 PM 86.0 °F 87.6 °F 64.9 °F 49% 29.80 in 10.0 mi Calm Calm - N/A   Clear
8:30 PM 82.4 °F 83.9 °F 64.4 °F 54% 29.82 in 10.0 mi Calm Calm - N/A Thunderstorm Thunderstorm
8:45 PM 73.4 °F - 66.2 °F 78% 29.87 in 1.8 mi WNW 15.0 mph 29.9 mph 0.05 in Rain , Thunderstorm Heavy Thunderstorms and Rain
8:55 PM 72.0 °F - 66.9 °F 84% 29.81 in 1.8 mi SSE 11.5 mph - 0.21 in Rain , Thunderstorm Light Thunderstorms and Rain
8:57 PM 71.6 °F - 66.2 °F 83% 29.82 in 3.0 mi South 9.2 mph - 0.00 in Rain , Thunderstorm Light Thunderstorms and Rain
9:38 PM 69.8 °F - 66.2 °F 88% 29.86 in 10.0 mi SSW 4.6 mph - 0.00 in   Clear
9:55 PM 69.1 °F - 66.0 °F 90% 29.86 in 10.0 mi SSW 3.5 mph - 0.00 in   Clear
10:55 PM 66.9 °F - 66.0 °F 97% 29.88 in 10.0 mi Calm Calm - N/A   Clear
11:55 PM 66.9 °F - 66.0 °F 97% 29.89 in 10.0 mi South 4.6 mph - N/A   Mostly Cloudy